www.pogodaiklimat.ru

Погода и климат >> Архив погоды >> Россия >> Иркутская область >> Черемхово


ПОГОДА в Черемхово

  • Прогноз погоды в Черемхово
  • Монитор погоды в Черемхово
  • Климат города

АРХИВ ПОГОДЫ в Черемхово

Время (UTC), дата Ветер
(напр.,м/с)
 
Видим.   Явления Облачность Т
(С)
Тd
(С)
f
(%)
Тe
(С)
Тes
(С)
Комфортность P
(гПа)
Po
(гПа)
Тmin
(С)
Tmax
(С)
R
(мм)
R24
(мм)
S
(см)
15 16.06 СЗ 1 н/о 1/1 600 м
[Sc diur, vesp]
+14.0 +5.0 55 +15 +15 1010.4 941.7
18 16.06 СЗ 1 н/о ясно +11.7 +5.3 65 +12 +12 1013.5 944.0
21 16.06 СЗ 1 50 км 9/9 600 м
[Cb cap]
+11.5 +5.8 68 +12 +12 1012.2 942.8
00 17.06 З 1
{7}
50 км 9 баллов +14.1 +7.6 65 +15 +15 1012.8 944.0 +10.0
03 17.06 СЗ 5
{10}
50 км 10 баллов +23.0 +6.7 35 +24 +24 комфорт 1010.7 944.0
06 17.06 СЗ 6
{13}
50 км 6 баллов +25.4 +6.1 29 +25 +28 комфорт 1010.2 944.0
09 17.06 З 2
{12}
20 км 9/9 600 м
[Cb cap]
+21.5 +8.7 44 +23 +24 комфорт 1009.5 942.6
12 17.06 З 1
{13}
20 км 9 баллов +22.5 +10.6 47 +24 +25 комфорт 1010.8 944.0 +25.8
15 17.06 З 1 н/о 6/4 600 м
[Cb cap Ci sp]
+15.9 +8.8 63 +17 +17 1011.2 942.9
18 17.06 З 1 н/о 6 баллов +16.2 +7.4 56 +17 +17 1012.3 944.0
21 17.06 СЗ 1 20 км 9/5 600 м
[Cb cap Ac trans Ci fib]
+13.9 +7.8 67 +14 +14 1011.8 943.0
00 18.06 З 2
{3}
50 км 4 балла +18.0 +9.9 59 +19 +21 1011.8 944.0 +13.1
03 18.06 СЗ 3 50 км 8/3 600 м
[Cu med, cong Cs]
+23.0 +9.5 42 +25 +31 комфорт 1009.8 943.2
06 18.06 С 6
{10}
50 км 7 баллов +26.7 +8.2 31 +27 +29 жарко 1008.5 942.7
09 18.06 СЗ 6
{12}
50 км 6 баллов +26.7 +5.0 25 +26 +27 жарко 1008.5 942.7
12 18.06 С 6
{12}
50 км 4 балла +24.6 +2.7 24 +24 +24 комфорт 1009.0 942.7 +27.6
15 18.06 СЗ 1 н/о 8/0
[Ci sp]
+17.6 +6.1 47 +19 +19 1009.6 941.8
18 18.06 СЗ 1 н/о 7 баллов +14.8 +6.6 58 +15 +15 1011.3 942.7
21 18.06 С 2 50 км 8/8 600 м
[Sc]
+12.6 +8.3 75 +12 +12 1010.0 941.1
00 19.06 С 3
{8}
50 км 1 балл +19.3 +7.1 45 +20 +23 1010.2 942.7 +11.6
03 19.06 В 3 50 км 1/1 600 м
[Cu med, cong]
+21.4 +8.1 42 +22 +33 комфорт 1009.6 942.7
06 19.06 В 4 50 км 6 баллов +23.8 +5.2 30 +24 +28 комфорт 1010.6 944.0
09 19.06 СВ 4 50 км 6/6 600 м
[Cu med, cong]
+25.0 +4.1 26 +24 +27 комфорт 1009.0 942.8
12 19.06 С 2
{9}
50 км 2 балла +23.0 +5.4 32 +23 +24 комфорт 1010.8 944.0 +25.2
15 19.06 штиль 0 н/о ясно +17.3 +4.8 44 +17 +17 1011.9 943.8
18 19.06 З 1 н/о ясно +16.0 +4.4 46 +17 +17 1012.4 944.0
21 19.06 ЮВ 3 20 км 1/1 1000 м
[Sc]
+10.2 +7.1 81 +8 +8 1013.6 943.9
00 20.06 ЮВ 2
{5}
50 км 1 балл +17.9 +10.3 61 +18 +22 1013.3 945.3 +9.9
03 20.06 ЮВ 4 50 км 3/0
[Ci fib]
+23.1 +8.1 38 +24 +33 комфорт 1011.4 944.8
06 20.06 ЮВ 6
{10}
50 км 2 балла +26.7 +7.2 29 +26 +31 жарко 1009.9 944.0
09 20.06 ЮВ 5
{11}
50 км 2 балла +27.6 +5.8 25 +27 +30 жарко 1008.3 942.7
12 20.06 ЮВ 3
{11}
50 км 2 балла +26.2 +7.2 30 +26 +27 жарко 1008.6 942.7 +28.1
15 20.06 Ю 2 н/о 3/3 1000 м
[Sc]
+20.1 +9.3 50 +22 +22 комфорт 1009.0 941.8
18 20.06 ЮВ 4 н/о ясно +16.0 +8.5 61 +15 +15 1011.0 942.7
21 20.06 ЮВ 5 50 км ясно +14.6 +7.1 61 +13 +13 1009.4 941.0
00 21.06 ЮВ 7
{10}
50 км ясно +20.4 +8.7 47 +21 +23 комфорт 1008.4 941.3 +13.1
03 21.06 ЮВ 8
{14}
50 км 2 балла +27.1 +7.5 29 +27 +29 жарко 1006.9 941.3
06 21.06 ЮВ 7
{14}
50 км 4 балла +30.5 +6.4 22 +29 +32 жарко 1004.8 940.0
09 21.06 ЮВ 8
{13}
50 км 1 балл +31.3 +6.3 21 +30 +31 жарко 1003.2 938.7
12 21.06 ЮВ 7
{14}
50 км ясно +28.8 +5.6 23 +28 +28 жарко 1003.8 938.7 +31.5
15 21.06 ЮВ 5
{11}
н/о 3/3 1000 м
[Sc Ci fib]
+23.9 +6.5 33 +24 +24 комфорт 1003.7 937.7
18 21.06 ЮВ 6
{10}
н/о 4 балла +17.7 +8.0 53 +17 +17 1006.3 938.7
21 21.06 ЮВ 4 20 км 1/0
[Ci fib]
+17.4 +7.0 50 +17 +17 1004.6 937.1
00 22.06 ЮВ 5
{11}
50 км 2 балла +22.1 +7.9 40 +23 +25 комфорт 1005.2 938.7 +17.4
03 22.06 ЮЗ 1 50 км ясно +28.9 +7.8 27 +28 +44 жарко 1004.1 939.1
06 22.06 З 2 50 км ясно +32.1 +8.3 23 +31 +47 жарко 1004.4 940.0
09 22.06 З 2 50 км ясно +33.3 +9.6 23 +32 +41 жарко 1002.2 938.3
12 22.06 З 2
{8}
50 км ясно +30.5 +11.4 31 +31 +32 жарко 1004.7 940.0 +33.4
15 22.06 З 1 н/о 3/0
[Ci fib]
+21.5 +13.1 59 +24 +24 комфорт 1006.4 939.8
18 22.06 штиль 0 н/о 4 балла +19.3 +13.7 70 +21 +21 комфорт 1008.5 941.3
21 22.06 В 2 50 км 4/0
[Ci sp]
+18.3 +13.2 72 +19 +19 1007.1 939.8
00 23.06 ЮВ 3
{5}
50 км 7 баллов +22.1 +15.2 65 +26 +27 душно 1007.8 941.3 +16.7
03 23.06 ЮВ 4 20 км 8/0
[Cs]
+28.2 +11.3 35 +29 +37 жарко 1004.7 939.7
06 23.06 ЮВ 5 20 км 5 баллов +32.8 +6.1 19 +31 +35 жарко 1004.3 940.0
09 23.06 ЮВ 3 20 км 4/0
[Ci fib]
+33.8 +4.3 16 +31 +38 жарко 1001.2 937.4
12 23.06 Ю 1
{9}
20 км 9 баллов +28.2 +9.5 31 +28 +28 жарко 1003.8 938.7 +33.9

 

Местоположение метеостанции Черемхово (Иркутская область, Россия): широта 53.18 долгота 103.00 высота над уровнем моря 598 м.

В архиве по умолчанию представлена погода в Черемхово за последнюю неделю. Архивные данные за месяц целиком и за предыдущие месяцы, начиная с января 2011 года, Вы можете получить, выбрав интересующий диапазон дат из раскрывающегося списка и нажав кнопку "Ввод!".

Внимание! Время в таблицах - всемирное. Для получения местного времени необходимо прибавить поправку, которая в Черемхово равна 8 ч.

Смотрите также архив погоды в соседних городах и на ближайших метеорологических станциях:

Погода в Заларях (Иркутская область, Россия) (53 км)
Погода в Инге (Иркутская область, Россия) (77 км)
Погода в Балаганске (Иркутская область, Россия) (91 км)
Погода в Ангарск (Иркутская область, Россия) (95 км)
Погода в Зиме (Иркутская область, Россия) (106 км)
Погода в Хомутово (Иркутская область, Россия) (119 км)
Погода в Усть-Ордынском (Иркутская область, Россия) (121 км)
Погода в Дабадах (Иркутская область, Россия) (122 км)
Погода в Иркутске (Иркутская область, Россия) (134 км)
Погода в Иркутск аэропорт (Иркутская область, Россия) (134 км)

Пояснения к столбцам:

Ветер - указаны скорость ветра в м/с - средняя за 10 мин, порывы в срок и между сроками (в фигурных скобках) и направление, откуда дует ветер: С - северный, СВ - северо-восточный, В - восточный, ЮВ - юго-восточный, Ю - южный, ЮЗ - юго-западный, З - западный, СЗ - северо-западный.
Видимость - горизонтальная дальность видимости в метрах или километрах. При видимости от 1 до 10 км при отсутствии осадков обычно наблюдается дымка, при ухудшении видимости до 1 км и менее - туман. В сухую погоду видимость может ухудшаться дымом, пылью или мглою.
Явления - указаны атмосферные явления, наблюдавшиеся в срок или в последний час перед сроком; фигурными скобками обозначены явления, наблюдавшиеся между сроками (за 1-3 часа до срока); квадратными скобками обозначены град или гололедные отложения с указанием их диаметра в мм.
Облачность - указаны через наклонную черту общая и нижняя облачность в баллах и высота нижней границы облаков в метрах; квадратными скобками обозначены формы облаков: Ci - перистые, Cs - перисто-слоистые, Cc - перисто-кучевые, Ac - высококучевые, As - высокослоистые, Sc - слоисто-кучевые, Ns - слоисто-дождевые, Cu - кучевые, Cb - кучево-дождевые. Подробнее классификацию облаков см. в Атласе облаков (PDF).
T - Температура воздуха - температура, измеренная на высоте 2 м над землей.
Td - Температура точки росы - температура, при понижении до которой содержащийся в воздухе водяной пар достигнет насыщения.
f - Относительная влажность воздуха - влажноcть воздуха, измеренная на высоте 2 м над землей.
Te - Эффективная температура - температура, которую ощущает одетый по сезону человек в тени. Характеристика душности погоды. При расчете учитывается влияние влажности воздуха и скорости ветра на теплоощущения человека.
Tes - Эффективная температура на солнце - температура, которую ощущает человек, с поправкой на солнечный нагрев. Характеристика знойности погоды. Зависит от высоты солнца над горизонтом, облачности и скорости ветра. Ночью, в пасмурную погоду, а также при ветре 12 м/с и более поправка равна нулю.
P - Атмосферное давление - приведенное к уровню моря атмосферное давление.
Po - Атмосферное давление - измеренное на уровне метеостанции атмосферное давление.
Tmin - Минимальная температура - минимум температуры воздуха на высоте 2 м над землей.
Tmax - Максимальная температура - максимум температуры воздуха на высоте 2 м над землей.
R - Количество осадков - Количество выпавших осадков за период времени, мм. При наведении курсора мыши на число - период времени, за который выпало указанное количество осадков.
R24 - Количество осадков - Количество выпавших осадков за 24 часа, мм.
S - Снежный покров - Высота снежного покрова, см. При наведении курсора мыши на число - состояние снежного покрова и степень покрытия местности в баллах.